Content
SEND FEEDBACK

Daily
Averages
Monthly
Summary
United Kingdom

SHOREHAM-BY-SEA, ENGLAND


Home > Europe > United Kingdom > England
Elevation: 7 feet     Latitude: 50 50N     Longitude: 000 17W

WEATHER
 
SELECT A DAY
Number of Records: 110,365;   Date Range: 7/1/96 - 7/28/14
 
SHARE

PRINT THIS DATA

[ ← Previous Day ]
WEATHER ALMANAC - FEBRUARY 16, 2014
[ Next Day → ]
[ °C ]   °F
Weather ElementAverageHighLow
Temperature44.3 °F49 °F (1:00 pm)33 °F (7:00 am)
Dewpoint40.1 °F44.6 °F (5:50 pm)31 °F (7:00 am)
Humidity83.4 %93 % (8:50 am)64 % (1:00 pm)
Barometer29.77 in29.82 in (11:00 am)29.67 in (1:00 am)
Wind Speed6.8 mph9.2 mph (12:50 pm)
Weather ElementAverage
Visibility6.1 mi
Wind DirectionSSW (216.8 °)

Weather ElementTotal
Precipitation---
Heating Degree Days24 (Base 65)
Averaged from 44 records on February 16, 2014
WEATHER CONDITIONS BREAKOUT
WIND DIRECTION BREAKOUT
WEATHER BY HOUR - FEBRUARY 16, 2014
[ °C ]   °F
Local TimeTemperatureDewpointHumidityBarometerVisibilityWind DirectionWind SpeedGust SpeedPrecipitationEventsConditions
1:00 AM37.0 °F35.0 °F91 %29.67 inWest (260°)8.1 mph
2:00 AM37.0 °F35.0 °F91 %29.69 inWest (270°)6.9 mph
3:00 AM37.0 °F35.0 °F90 %29.70 inWest (270°)5.8 mph
4:00 AM36.0 °F35.0 °F92 %29.71 inWest (260°)5.8 mph
5:00 AM37.0 °F35.0 °F91 %29.73 inWest (280°)6.9 mph
6:00 AM34.0 °F32.0 °F88 %29.74 inWSW (240°)5.8 mph
7:00 AM33.0 °F31.0 °F91 %29.75 inWest (260°)5.8 mph
8:00 AM36.0 °F34.0 °F91 %29.78 inWest (280°)8.1 mph
8:50 AM39.2 °F37.4 °F93 %29.80 inWest (260°)4.6 mphClear
9:00 AM39.0 °F36.0 °F87 %29.80 inWSW (250°)5.8 mph
9:20 AM41.0 °F37.4 °F87 %29.80 inWSW (240°)5.8 mphClear
9:50 AM42.8 °F39.2 °F87 %29.80 inWest (260°)6.9 mphClear
10:00 AM43.0 °F39.0 °F79 %29.81 inWest (260°)6.9 mph
10:20 AM44.6 °F39.2 °F81 %29.80 inWSW (240°)5.8 mphClear
10:50 AM46.4 °F39.2 °F76 %29.80 inWSW (250°)6.9 mphClear
11:00 AM47.0 °F40.0 °F69 %29.82 inWSW (250°)5.8 mph
11:20 AM46.4 °F39.2 °F76 %29.80 in6.2 miSW (220°)8.1 mphPartly Cloudy
11:50 AM48.2 °F41.0 °F76 %29.80 in6.2 miSSW (210°)4.6 mphPartly Cloudy
12:00 PM47.0 °F39.0 °F67 %29.82 inSSW (210°)5.8 mph
12:20 PM48.2 °F41.0 °F76 %29.80 in6.2 miSSW (200°)6.9 mphPartly Cloudy
12:50 PM48.2 °F41.0 °F76 %29.80 in6.2 miSSW (200°)9.2 mphPartly Cloudy
1:00 PM49.0 °F41.0 °F64 %29.81 inSSW (200°)9.2 mph
1:20 PM48.2 °F41.0 °F76 %29.80 in6.2 miSouth (190°)8.1 mphScattered Clouds
1:50 PM48.2 °F41.0 °F76 %29.77 in6.2 miSouth (190°)6.9 mphPartly Cloudy
2:00 PM49.0 °F41.0 °F66 %29.80 inSouth (190°)6.9 mph
2:20 PM48.2 °F42.8 °F82 %29.77 in6.2 miSSW (200°)8.1 mphPartly Cloudy
2:50 PM48.2 °F42.8 °F82 %29.77 in6.2 miSW (220°)9.2 mphPartly Cloudy
3:00 PM48.0 °F42.0 °F73 %29.78 inSSW (210°)8.1 mph
3:20 PM48.2 °F42.8 °F82 %29.77 in6.2 miSSW (200°)6.9 mphPartly Cloudy
3:50 PM48.2 °F42.8 °F82 %29.77 in6.2 miSSW (200°)6.9 mphPartly Cloudy
4:00 PM48.0 °F43.0 °F77 %29.77 inSSW (200°)8.1 mph
4:20 PM48.2 °F42.8 °F82 %29.74 in6.2 miSouth (190°)8.1 mphPartly Cloudy
4:50 PM46.4 °F42.8 °F87 %29.74 in6.2 miSouth (190°)6.9 mphPartly Cloudy
5:00 PM46.0 °F44.0 °F88 %29.76 inSouth (190°)6.9 mph
5:20 PM46.4 °F42.8 °F87 %29.74 in5.0 miSouth (180°)5.8 mphMostly Cloudy
5:50 PM46.4 °F44.6 °F93 %29.74 in6.2 miSouth (170°)5.8 mphMostly Cloudy
6:00 PM46.0 °F44.0 °F89 %29.77 inSouth (170°)5.8 mph
6:20 PM46.4 °F44.6 °F93 %29.77 in6.2 miSouth (170°)6.9 mphMostly Cloudy
6:50 PM46.4 °F44.6 °F93 %29.74 in6.2 miSSE (160°)5.8 mphMostly Cloudy
7:00 PM47.0 °F44.0 °F86 %29.77 inSouth (170°)5.8 mph
8:00 PM47.0 °F44.0 °F86 %29.76 inSouth (170°)5.8 mph
9:00 PM45.0 °F43.0 °F90 %29.75 inSouth (190°)6.9 mph
10:00 PM43.0 °F41.0 °F90 %29.75 inSW (220°)4.6 mph
11:00 PM45.0 °F43.0 °F92 %29.75 inSSW (200°)8.1 mph
Hourly data recorded from EGKA, located miles away from Shoreham-by-Sea, England







STORIES FROM OUR PARTNERS